Miscellaneous Local Product
Issued by NWS Hastings, NE

Home | Current Version | Previous Version | Graphics & Text | Print | Product List | Glossary On
Versions: 1 2 3 4 5 6 7 8 9 10 11 12 13 14 15 16 17 18 19 20 21 22 23 24 25 26 27 28 29 30 31 32 33 34 35 36 37 38 39 40 41 42 43 44 45 46 47 48 49 50
000
AXUS43 KGID 190402
MISGRI

GID CWA HOURLY WEATHER ROUNDUP
NATIONAL WEATHER SERVICE HASTINGS NE
1100 PM CDT FRI APR 18 2014

NOTE: "FAIR" INDICATES FEW OR NO CLOUDS BELOW 12,000 FEET WITH NO
SIGNIFICANT WEATHER AND/OR OBSTRUCTIONS TO VISIBILITY.

...SOUTH CENTRAL NEBRASKA...

CITY           SKY/WX    TMP DP  RH WIND       PRES   REMARKS
GRAND ISLAND   CLEAR     58  42  55 S16       30.01F
HASTINGS       CLEAR     58  41  53 S13G20    30.01F
KEARNEY        CLEAR     57  43  58 S18       29.99F
ORD            PTCLDY    60  42  51 S18G25    29.94S
YORK           CLEAR     55  41  58 S18       30.05S
AURORA         CLEAR     59  42  53 S16G22    30.03S
LEXINGTON      CLEAR     57  44  60 S18       29.96F
HOLDREGE       CLEAR     57  42  57 S15G21    29.98F
HEBRON         CLEAR     57  41  55 S10       30.07F

...NEBRASKA PANHANDLE...

CITY           SKY/WX    TMP DP  RH WIND       PRES   REMARKS
CHADRON        CLOUDY    66  37  34 SW10      29.77R
ALLIANCE       CLOUDY    64  35  34 S14G26    29.81R
SCOTTSBLUFF    CLOUDY    67  32  27 S8        29.81S
SIDNEY         CLOUDY    61  34  36 S17       29.86R

...WESTERN AND NORTH CENTRAL NEBRASKA...

CITY           SKY/WX    TMP DP  RH WIND       PRES   REMARKS
VALENTINE      MOCLDY    64  43  46 S25G40    29.75S
AINSWORTH      MOCLDY    64  43  46 S24G37    29.81R
ONEILL         MOCLDY    62  39  42 S26G33    29.86F
BROKEN BOW     PTCLDY    58  43  57 S17G26    29.93F
IMPERIAL       MOCLDY    60  42  51 S20G26    29.90S
NORTH PLATTE   PTCLDY    62  42  47 S25G38    29.88F
MCCOOK         PTCLDY    60  42  51 S21G28    29.94R

...EASTERN NEBRASKA...

CITY           SKY/WX    TMP DP  RH WIND       PRES   REMARKS
NORFOLK        MOCLDY    59  39  47 S21G30    29.98S
SO SIOUX CITY  PTCLDY    57  39  51 SE15      30.02S
TEKAMAH        MOCLDY    55  38  52 SE12      30.05F
COLUMBUS       CLEAR     57  37  47 S17       30.04S
ALBION         MOCLDY    58  40  51 S17       29.98F
OMAHA EPPLEY   CLOUDY    57  40  52 S13       30.09S
OFFUTT AFB     CLOUDY    55  42  60 SE8       30.10S
MILLARD        CLOUDY    58  40  50 SE10      30.09S
LINCOLN        MOCLDY    59  40  49 S17       30.08S
NEBRASKA CITY  CLOUDY    58  40  50 S13       30.12S
BEATRICE       MOCLDY    58  39  49 SE12      30.10S
FALLS CITY     MOCLDY    55  41  59 S12       30.13S

...NORTHERN KANSAS...

CITY           SKY/WX    TMP DP  RH WIND       PRES   REMARKS
GOODLAND       PTCLDY    56  43  61 S25       29.93S
HILL CITY      CLEAR     60  41  49 S14       30.00S
PHILLIPSBURG   CLEAR     57  41  54 SE12      30.00F
SMITH CENTER   CLEAR     55  41  58 SE16      30.03F
BELOIT         CLEAR     61  43  51 SE10G17   30.05F
HAYS           CLEAR     57  41  54 SE15      30.03F
RUSSELL        CLEAR     58  41  53 SE16      30.02F
CONCORDIA      CLEAR     58  42  55 S10       30.07F
SALINA         CLEAR     56  40  55 SE8       30.09F
TOPEKA         PTCLDY    55  42  61 SE5       30.16R



USA.gov is the U.S. government's official web portal to all federal, state and local government web resources and services.